Regional Weather Roundup
Issued by NWS

Home | Current Version | Previous Version | Graphics & Text | Print | Product List | Glossary Off
Versions: 1 2 3 4 5 6 7 8 9 10 11 12 13 14 15 16 17 18 19 20 21 22 23 24 25 26 27 28 29 30 31 32 33 34 35 36 37 38 39 40 41 42 43 44 45 46 47 48 49 50

330
ASUS43 KLOT 300608
RWRIL

ILLINOIS REGIONAL WEATHER ROUNDUP
NATIONAL WEATHER SERVICE CHICAGO/ROMEOVILLE IL
100 AM CDT SUN APR 30 2017

NOTE: "FAIR" INDICATES FEW OR NO CLOUDS BELOW 12,000 FEET WITH NO
SIGNIFICANT WEATHER AND/OR OBSTRUCTIONS TO VISIBILITY.

* THESE STATIONS ARE NOT UNDER NWS QUALITY CONTROL. THEY ALSO MAY NOT
  REPORT WEATHER SUCH AS PRECIPITATION OR FOG.

ILZ001-002-007-009-015-016-024-300700-
NORTHWEST ILLINOIS

CITY           SKY/WX    TMP DP  RH WIND       PRES   REMARKS
MOLINE         CLOUDY    43  40  89 NE12      29.95F
6HR MIN TEMP:  41; 6HR MAX TEMP:  43; 6HR PCP:  0.01;

STERLING*      CLOUDY    44  42  93 NE18G28   29.94F
SAVANNA*       CLOUDY    42  39  90 NE17G23   29.97F
$$

ILZ003-004-008-010-011-017-018-300700-
NORTH CENTRAL ILLINOIS

CITY           SKY/WX    TMP DP  RH WIND       PRES   REMARKS
ROCKFORD       CLOUDY    44  40  85 NE21G26   30.01S
6HR MIN TEMP:  39; 6HR MAX TEMP:  44; 6HR PCP:  0.28;

FREEPORT*      CLOUDY    41  39  95 NE13      30.02S
ROCHELLE*      CLOUDY    43  41  93 NE24G30   29.97S
DE KALB*       CLOUDY    42  41  95 NE20      29.98R
PERU*          CLOUDY    44  42  95 NE18G26   29.92F
$$

ILZ005-006-012>014-019>023-300700-
NORTHEAST ILLINOIS

CITY           SKY/WX    TMP DP  RH WIND       PRES   REMARKS
CHICAGO-OHARE  DRIZZLE   44  41  89 NE15      29.98S
6HR MIN TEMP:  40; 6HR MAX TEMP:  45; 6HR PCP:  1.18;

CHICAGO-MIDWAY LGT RAIN  46  45  96 NE18G24   29.95F FOG
6HR MIN TEMP:  43; 6HR MAX TEMP:  46; 6HR PCP:  0.76;

AURORA         CLOUDY    45  43  93 NE17G25   29.95R FOG
6HR MIN TEMP:  41; 6HR MAX TEMP:  47; 6HR PCP:  1.00;

LANSING*       CLOUDY    47  47 100 E13       29.92F FOG
JOLIET*        CLOUDY    46  46  98 NE12G18   29.93R
WAUKEGAN       LGT RAIN  42  42 100 NE15G26   30.02F FOG
6HR MIN TEMP:  39; 6HR MAX TEMP:  43;

DUPAGE AIRPORT LGT RAIN  43  43 100 NE16G22   29.96F FOG
6HR MIN TEMP:  39; 6HR MAX TEMP:  45; 6HR PCP:  0.97;

KANKAKEE*      DRIZZLE   48  47  98 NE10      29.91R
WHEELING       LGT RAIN  42  42 100 NE13G26   30.01S FOG
6HR MIN TEMP:  39; 6HR MAX TEMP:  44; 6HR PCP:  0.82;

MORRIS*        CLOUDY    46  44  93 CALM      29.91S
ROMEOVILLE*    CLOUDY    45  45 100 NE17      29.93R FOG
NORTHERLY ISL    N/A     45  43  93 NE21        N/A
$$

LMZ740>746-300700-
SOUTHERN LAKE MICHIGAN

STATION/POSITION SKY/WX   TEMP    WIND        PRES    VSBY  WAVE
                          AIR SEA DIR/SP/G                  HT/PER
                          (F)     (DEG/KT/KT) (MB)    (MI)  (FT/S)
SOUTHERN BUOY              42 41   50/ 17/ 19 1018.1          5/ 5
HARRISON CRIB              44      60/ 23/ 25   N/A
BURNHAM HARBOR             44      50/ 13/ 22   N/A
CALUMET HARBOR             46      50/ 17/ 19 1013.3F
BURNS HARBOR               47      90/ 14/ 20 1013.2F
MICHIGAN CITY              46      90/ 17/ 21   N/A
MICHIGAN CITY 6N           47 47                N/A           6/ 6
ST. JOSEPH                 47 47  130/ 23/ 31 1014.4          6/ 6
$$

ILZ025>027-034>036-040-047-049-050-058-095>099-300700-
WEST-CENTRAL ILLINOIS

CITY           SKY/WX    TMP DP  RH WIND       PRES   REMARKS
QUINCY         LGT RAIN  45  44  97 E10       29.84F
GALESBURG*     CLOUDY    44  43  98 NE13G21   29.89F
MACOMB*        LGT RAIN  45  44  99 NE13      29.91F
JACKSONVILLE*  LGT RAIN  45  44  97 N9        29.86F
PITTSFIELD*    LGT RAIN  46  45  98 N9        29.87F
$$

ILZ028>032-037-038-041>044-048-051>054-059>061-300700-
CENTRAL ILLINOIS

CITY           SKY/WX    TMP DP  RH WIND       PRES   REMARKS
PONTIAC        CLOUDY    48  47  98 NE16      29.91R
BLOOMINGTON    CLOUDY    46  46 100 N10       29.91R FOG
DECATUR        LGT RAIN  51  51 100 NW9       29.85S
PEORIA         CLOUDY    46  45  96 NE9       29.91R
6HR MIN TEMP:  44; 6HR MAX TEMP:  47; 6HR PCP:  0.13;

LACON*         CLOUDY    46  45  97 NE10      29.91S
LINCOLN*       RAIN      48  48 100 NE9       29.86F
SPRINGFIELD    RAIN      48  47  96 NE7       29.87S FOG
6HR MIN TEMP:  46; 6HR MAX TEMP:  48; 6HR PCP:  0.43;

TAYLORVILLE    LGT RAIN  48  48  99 N14       29.83F
6HR MIN TEMP:  47; 6HR MAX TEMP:  51; 6HR PCP:  0.27;

$$

ILZ033-039-045-046-055>057-062-063-300700-
EAST-CENTRAL ILLINOIS

CITY           SKY/WX    TMP DP  RH WIND       PRES   REMARKS
CHAMPAIGN      LGT RAIN  59  57  93 SW8       29.86R
RANTOUL*       LGT RAIN  60  59  97 CALM      29.87R
MATTOON        LGT RAIN  62  62 100 SE10      29.82F
PARIS*         LGT RAIN N/A N/A N/A SE8       29.87F
$$

ILZ079-100>102-300700-
SOUTHWEST ILLINOIS

CITY           SKY/WX    TMP DP  RH WIND       PRES   REMARKS
ALTON          RAIN      54  54  99 N5        29.83F
BELLEVILLE     CLOUDY    61  61 100 S5        29.81F
CAHOKIA*       LGT RAIN  62  60  93 S7        29.81F
$$

ILZ064>066-069>071-074>076-080>082-084>086-088>090-092>094-300700-
SOUTH-CENTRAL ILLINOIS

CITY           SKY/WX    TMP DP  RH WIND       PRES   REMARKS
CARBONDALE     MOCLDY    63  63 100 SE12      29.83F
6HR MIN TEMP:  63; 6HR MAX TEMP:  67; 6HR PCP:  0.97;

CAIRO*         LGT RAIN  64  64  97 NE10      29.82F
EFFINGHAM*     LGT RAIN  63  63 100 SE9       29.87R
MARION         CLOUDY    64  63  94 E6        29.84F
MT. VERNON     LGT RAIN  63  62  97 E5        29.84F
CENTRALIA*     LGT RAIN  64  63  99 E8        29.81F
SALEM*         RAIN      64  62  93 SE7G17    29.86R
METROPOLIS*    CLOUDY    65  64  96 E3        29.86F
$$

ILZ067-068-072-073-078-083-087-091-300700-
SOUTHEAST ILLINOIS

CITY           SKY/WX    TMP DP  RH WIND       PRES   REMARKS
LAWRENCEVILLE  CLOUDY    64  64 100 E3        29.87F
FLORA*         RAIN     N/A N/A N/A S14       29.92R
FAIRFIELD*     RAIN      63  63 100 E6        29.88S
HARRISBURG*    LGT RAIN  64  64 100 E8        29.85F
ROBINSON*      CLOUDY    62  62  99 SE7       29.88F
CARMI*         LGT RAIN  64  64 100 W8        29.92S
$$

ABBREVIATIONS USED IN REMARKS
   TC - TEMPERATURE IN CELSIUS
  WCI - WIND CHILL INDEX
   HX - HEAT INDEX
  VSB - VISIBILITY
$$





USA.gov is the U.S. government's official web portal to all federal, state and local government web resources and services.